{"data":{"norad_id":65644,"intl_designator":"2025-210Y","name":"STARLINK-35141","alt_names":[],"object_type":"PAYLOAD","status":"ACTIVE","operator":null,"country":"US","launch_date":"2025-09-18","launch_site_code":"AFETR","launch_vehicle":null,"mission":null,"orbit_class":"UNKNOWN","rcs_meters":null,"size_class":null,"mass_kg":null,"dimensions":null,"purposes":["comms"],"wikipedia_slug":null,"has_3d_model":false,"image_url":null,"decayed_at":null,"tle_current":{"epoch":"2026-05-24T18:14:23.352864Z","epoch_age_seconds":95822,"freshness":"FRESH","line1":"1 65644U 25210Y   26144.75999251  .00020363  00000+0  69723-3 0  9992","line2":"2 65644  53.1599 314.0305 0001025  76.2787 283.8327 15.30224816 39377","mean_motion":15.30224816,"eccentricity":0.0001025,"inclination_deg":53.1599,"raan_deg":314.0305,"arg_perigee_deg":76.2787,"mean_anomaly_deg":283.8327,"bstar":0.00069723,"rev_number":3937,"period_min":94.103819578887,"perigee_km":474.43851332543,"apogee_km":475.84343531017,"semimajor_km":6853.2779743178,"source":"CELESTRAK","updated_at":"2026-05-25T13:38:20.885906Z"}}}